Wind_Speed
72 69 69 71 69 66 66 62 57 53 49 33 33 32 27 26 30 30 23 20 18 13 14 12 10 12 17 19 21 18 19 19 14 14 16 18 22 22 26 27 23 25 22 27
76 74 76 73 71 68 66 66 63 59 57 39 35 43 39 29 31 30 27 27 23 22 23 19 12 14 14 18 17 15 15 19 18 14 13 13 13 19 23 24 25 24 22 25
79 83 78 75 72 70 65 65 70 67 62 57 41 41 43 39 37 36 33 26 23 20 19 17 16 15 18 19 15 16 14 16 17 15 10 10 12 13 19 20 22 24 24 24
84 83 79 78 75 72 69 69 66 73 69 68 61 43 39 52 49 51 41 39 28 26 20 14 14 19 19 20 11 14 14 13 14 15 15 10 9 12 14 16 19 20 22 22
87 84 83 79 79 76 77 74 71 71 75 72 68 69 58 48 49 45 47 46 41 36 25 20 18 20 17 15 13 11 14 10 11 12 14 14 11 11 12 15 15 16 18 20
87 87 83 84 85 82 83 76 73 71 72 75 76 70 67 65 52 34 36 45 43 45 33 27 27 21 15 14 13 11 10 11 8 9 11 12 13 14 12 11 13 14 15 17
82 84 86 86 83 84 80 76 75 73 70 72 73 70 68 61 59 52 47 44 36 34 35 30 26 21 17 19 15 14 9 11 9 8 9 9 10 13 15 12 9 11 11 12
81 82 86 86 83 85 84 79 76 75 73 73 74 77 67 60 63 64 63 51 42 35 36 34 27 23 22 21 18 15 9 10 12 8 9 7 10 11 13 14 11 7 9 10
86 82 84 86 90 89 87 83 79 79 78 74 72 78 76 66 68 65 57 51 46 43 35 38 29 21 22 19 18 17 12 12 13 14 14 10 9 9 9 11 13 11 7 7
87 85 81 82 89 91 89 87 83 81 81 79 76 76 74 77 71 68 55 49 49 39 35 36 34 34 32 20 20 16 15 12 9 15 14 16 14 13 9 8 9 10 9 6
88 87 83 81 84 91 93 90 88 84 84 84 79 78 74 76 78 73 67 62 57 48 44 44 42 43 37 30 29 18 17 14 6 9 14 13 17 15 18 13 7 8 10 6
89 88 87 84 83 85 89 91 89 86 82 83 82 79 78 75 75 76 69 65 60 56 56 51 48 52 37 28 35 31 25 26 14 8 6 11 5 14 10 15 13 10 13 13
87 87 89 89 85 87 88 88 89 90 89 86 81 79 77 75 75 75 76 74 70 64 60 61 55 53 46 34 41 33 34 35 27 19 17 10 8 7 8 12 13 20 13 18
86 87 90 90 86 86 84 86 87 91 93 89 83 79 77 74 77 78 76 72 74 64 72 68 66 55 48 50 43 41 40 37 32 30 25 18 18 19 20 19 14 14 17 21
85 89 89 91 89 86 83 83 88 90 93 92 88 81 77 80 79 80 76 77 76 73 73 74 75 61 54 51 44 45 45 41 41 41 39 31 27 26 28 26 18 20 19 19
81 86 89 89 89 86 84 85 88 91 93 92 90 86 81 80 81 85 84 78 79 75 86 77 81 66 59 52 50 54 52 52 48 49 46 41 33 35 32 34 27 29 30 22
83 84 82 86 87 83 83 85 87 90 93 92 89 89 90 87 85 86 92 92 86 84 85 93 86 82 68 66 63 61 60 60 60 57 50 49 46 41 40 40 34 31 36 33
82 86 91 85 82 85 87 84 84 86 92 91 89 87 89 90 90 87 90 91 95 99 97 93 88 82 78 70 68 65 65 66 62 60 58 55 48 49 47 48 43 35 32 35
79 83 88 92 89 86 84 85 86 85 85 88 87 87 88 91 93 93 91 92 92 93 100 102 100 99 90 82 79 75 67 66 68 66 58 54 51 50 52 56 55 49 49 47
81 82 82 83 92 94 88 85 84 83 85 84 83 86 88 90 93 98 99 98 96 97 98 96 98 95 92 91 89 90 79 81 82 77 67 60 59 58 55 61 60 56 59 59
81 80 79 80 82 84 84 88 91 84 82 83 85 85 86 87 90 94 99 103 103 103 104 102 98 96 96 94 92 89 88 86 89 84 79 73 73 69 65 64 69 65 62 60
87 84 82 81 81 79 81 83 87 87 87 84 86 86 86 88 89 92 98 102 106 107 107 106 104 101 97 98 100 99 97 95 96 95 91 86 81 80 75 76 71 74 69 69
90 89 89 85 83 83 86 85 85 87 87 85 85 86 86 87 91 96 97 102 106 107 109 111 108 105 104 98 99 101 101 104 105 102 100 97 94 89 90 86 82 80 77 73
67 87 95 91 92 87 87 88 89 90 89 87 85 89 91 90 94 96 98 99 101 106 111 110 111 113 109 108 101 102 103 107 113 110 110 109 109 104 96 99 100 96 94 96
54 65 78 92 97 94 97 94 93 93 93 91 91 93 95 100 99 96 98 100 104 106 107 112 114 112 113 115 114 111 106 105 105 108 116 117 114 113 109 108 108 107 107 106
45 55 63 70 80 93 102 100 100 102 99 96 96 99 100 101 102 99 97 98 101 106 108 108 110 113 115 115 117 118 119 119 118 116 113 111 111 114 116 117 118 117 113 113
Wind_Direction
217 217 217 218 218 212 210 213 213 210 201 182 218 207 216 209 213 234 226 228 237 251 263 293 309 324 331 342 1 20 21 28 32 21 35 41 51 44 46 47 60 57 61 65
214 216 216 217 219 216 209 213 214 210 204 202 217 210 208 224 209 216 227 234 255 246 253 267 285 304 324 335 352 357 23 28 27 27 34 39 32 44 43 45 46 53 61 61
210 214 216 218 218 217 213 213 216 212 204 201 203 205 213 200 213 212 224 232 245 236 249 253 272 282 306 312 339 346 5 24 26 25 28 30 24 37 40 43 40 43 58 57
213 214 216 217 217 217 215 215 215 214 209 206 209 212 211 214 218 225 232 243 237 243 258 252 270 274 286 304 330 338 344 10 17 23 20 12 25 33 34 42 40 40 50 54
213 212 213 214 217 215 216 214 215 216 214 213 217 223 217 207 222 231 234 240 242 237 247 250 279 278 274 288 302 316 319 339 2 6 21 16 2 11 29 36 40 43 40 49
214 213 214 214 216 215 216 216 215 217 216 218 217 218 221 220 208 209 227 237 235 242 236 254 263 261 250 271 283 277 283 303 336 347 355 15 2 0 14 31 32 43 40 46
214 213 214 216 217 218 217 216 216 216 216 218 220 219 219 219 217 216 220 226 224 240 254 241 246 252 245 247 250 252 260 284 300 313 333 343 356 5 0 357 11 27 42 46
213 213 215 216 217 218 218 214 214 217 215 217 218 220 218 216 212 213 221 235 237 239 241 238 243 243 231 219 224 237 281 261 275 285 292 317 326 346 359 350 346 6 25 31
212 212 215 217 217 218 217 214 214 213 218 217 218 223 217 216 214 217 223 234 237 236 233 237 232 222 197 202 221 233 262 276 261 274 265 277 296 323 343 348 347 340 359 12
213 212 212 216 219 219 219 216 214 214 215 218 217 222 220 218 222 223 221 222 226 224 225 221 217 210 213 218 217 232 246 279 268 283 258 271 277 288 297 314 326 333 333 335
215 214 214 214 219 220 221 218 216 215 216 215 216 219 221 220 221 223 227 223 221 225 216 211 219 220 224 245 232 225 223 237 258 272 265 300 287 283 297 291 291 319 332 304
216 217 216 217 220 222 222 221 220 217 218 220 217 220 221 220 223 222 216 214 221 232 218 223 222 227 221 238 235 234 236 230 232 224 267 296 239 283 304 300 280 292 343 314
216 218 219 218 219 223 223 222 222 220 219 218 218 219 224 223 221 225 219 219 225 229 221 221 221 228 230 235 232 219 239 239 237 248 259 242 249 244 270 294 277 291 308 327
215 217 220 220 220 223 225 225 223 223 221 221 218 218 220 224 223 224 226 226 221 223 218 221 223 227 229 234 233 224 232 235 237 239 249 228 243 267 283 272 265 248 278 289
215 218 219 220 221 222 222 224 225 224 224 222 219 217 218 220 222 221 221 222 215 221 223 226 223 223 222 229 230 225 230 230 235 242 243 247 245 252 258 257 258 265 259 269
212 218 219 220 218 220 221 224 225 225 224 223 222 219 218 221 220 221 217 217 217 221 219 221 221 220 220 224 228 225 226 221 220 231 239 242 248 244 241 250 260 260 274 268
212 214 217 219 217 218 220 222 224 226 227 224 222 222 220 220 221 220 221 220 222 223 222 223 225 225 226 223 225 219 227 221 220 223 232 241 249 235 238 241 253 255 260 259
214 216 216 215 217 216 218 219 224 225 226 226 223 223 224 224 223 222 223 224 225 228 230 226 225 228 231 220 215 212 216 219 224 226 230 237 241 239 244 243 245 250 239 256
219 218 219 219 218 220 217 220 225 224 224 225 225 223 224 225 224 225 225 225 225 227 230 232 232 233 231 222 217 221 220 222 230 227 230 229 232 238 246 245 244 234 235 242
222 221 220 220 222 220 221 221 225 228 227 225 225 224 225 226 226 226 226 227 226 227 229 231 231 231 230 229 227 224 223 226 229 226 227 227 230 236 240 244 242 236 234 239
223 226 226 223 224 224 224 225 224 226 230 225 226 228 227 226 227 228 230 229 230 229 229 229 232 230 229 229 228 229 226 226 227 225 228 228 230 230 234 239 240 238 233 239
222 223 226 226 223 223 223 228 227 226 229 227 226 230 229 228 228 227 228 230 229 231 234 234 232 231 233 231 232 232 230 225 224 226 231 233 231 232 232 233 239 240 240 239
223 224 226 225 227 225 224 225 230 229 229 230 230 232 234 232 231 229 229 230 231 230 232 235 236 235 230 232 232 231 232 231 230 231 234 237 237 232 230 231 235 232 235 241
226 226 227 226 226 226 229 228 230 233 229 228 230 232 234 235 235 234 233 231 232 233 234 233 236 236 234 233 230 233 234 233 231 233 235 237 239 239 235 231 230 232 233 231
229 229 229 230 229 228 228 229 230 232 235 233 232 232 234 236 236 235 235 234 233 234 235 236 235 236 237 236 235 233 230 232 233 235 236 238 239 241 242 240 237 234 235 235
239 234 231 231 230 230 231 231 232 232 232 234 235 235 235 237 239 240 239 238 238 237 237 238 238 238 237 238 238 237 237 236 238 241 241 240 240 240 242 244 244 243 243 243
Height
10880 10890 10896 10897 10906 10922 10935 10945 10955 10962 10970 10975 10978 10984 10986 10991 10992 10991 10996 11000 11003 11007 11006 11006 11006 11007 11006 11004 11004 10999 10996 10992 10990 10988 10986 10983 10982 10983 10978 10976 10976 10973 10971 10968
10867 10873 10875 10887 10898 10913 10928 10936 10944 10954 10962 10968 10972 10977 10982 10985 10988 10991 10994 10997 11000 11002 11007 11006 11007 11008 11009 11007 11006 11004 11000 10995 10991 10990 10989 10988 10986 10987 10983 10982 10981 10979 10976 10973
10848 10848 10867 10879 10891 10904 10918 10924 10928 10941 10953 10959 10961 10966 10977 10982 10984 10985 10988 10993 10996 11000 11004 11006 11007 11007 11007 11007 11007 11005 11001 10998 10997 10995 10994 10993 10991 10991 10989 10988 10987 10984 10980 10978
10828 10843 10859 10867 10880 10892 10905 10909 10918 10928 10940 10946 10952 10957 10965 10974 10978 10982 10984 10988 10993 10997 11000 11003 11005 11007 11007 11006 11007 11004 11003 11001 11000 10999 10999 10997 10996 10994 10993 10991 10990 10990 10987 10983
10815 10831 10843 10855 10863 10877 10882 10894 10906 10917 10930 10940 10945 10950 10959 10965 10971 10975 10980 10983 10988 10994 10998 11000 11002 11004 11006 11007 11006 11006 11005 11004 11003 11001 11001 11001 10999 10997 10996 10995 10994 10993 10991 10988
10806 10820 10832 10836 10845 10859 10865 10887 10898 10908 10922 10929 10933 10942 10947 10957 10966 10969 10972 10978 10983 10990 10994 10998 11000 11002 11004 11006 11005 11005 11005 11005 11003 11003 11002 11001 10999 10998 10998 10998 10997 10995 10994 10993
10792 10808 10815 10825 10839 10849 10866 10882 10889 10897 10908 10911 10923 10930 10938 10949 10958 10962 10966 10971 10977 10982 10986 10994 10997 10998 11001 11002 11003 11002 11003 11002 11002 11004 11003 11002 11001 11000 11000 11000 11000 10999 10997 10996
10780 10794 10801 10814 10825 10834 10850 10868 10880 10889 10894 10900 10914 10918 10931 10942 10950 10953 10958 10965 10971 10976 10982 10987 10992 10994 10997 10998 10999 11000 11000 11000 10999 11002 11000 11002 11002 11002 11002 11001 11000 11000 10999 10998
10766 10779 10790 10802 10808 10818 10834 10853 10864 10874 10880 10893 10905 10908 10924 10932 10939 10946 10956 10959 10966 10970 10975 10980 10987 10990 10993 10995 10996 10997 10998 10998 10998 10998 10999 10999 11000 11001 11002 11002 11002 11001 11000 11000
10757 10769 10780 10788 10795 10806 10818 10834 10848 10860 10870 10882 10891 10897 10912 10923 10927 10938 10947 10953 10958 10964 10968 10973 10979 10984 10986 10990 10992 10993 10995 10995 10996 10996 10998 10998 10999 11000 11000 11001 11001 11001 11001 11001
10746 10757 10769 10776 10782 10790 10801 10821 10833 10847 10856 10866 10879 10886 10898 10909 10916 10925 10937 10945 10950 10957 10960 10963 10970 10975 10979 10984 10987 10988 10989 10991 10993 10995 10996 10996 10997 10999 10999 10999 10999 11001 11001 11002
10729 10743 10753 10764 10770 10776 10789 10806 10821 10836 10847 10859 10872 10878 10884 10897 10905 10916 10928 10934 10941 10946 10953 10956 10959 10964 10971 10976 10979 10983 10984 10985 10986 10990 10993 10993 10994 10998 11000 11000 10999 11000 11001 11001
10715 10727 10736 10747 10756 10760 10776 10793 10809 10822 10832 10843 10861 10872 10879 10886 10895 10902 10913 10920 10928 10936 10943 10947 10949 10953 10961 10966 10971 10974 10977 10979 10981 10983 10986 10990 10992 10994 10996 10999 10998 10999 11001 11002
10701 10708 10718 10732 10745 10753 10766 10780 10793 10805 10816 10832 10850 10859 10869 10876 10880 10887 10896 10907 10915 10922 10929 10934 10939 10942 10950 10956 10964 10967 10970 10972 10972 10976 10980 10984 10987 10990 10991 10994 10996 10995 10996 10998
10685 10690 10703 10716 10730 10738 10751 10761 10773 10786 10800 10814 10833 10847 10855 10858 10863 10872 10880 10890 10899 10906 10912 10918 10925 10932 10938 10946 10951 10956 10962 10965 10967 10968 10972 10975 10979 10983 10986 10989 10991 10992 10992 10994
10667 10672 10686 10698 10712 10724 10736 10745 10752 10765 10779 10798 10816 10831 10841 10842 10852 10857 10864 10873 10882 10889 10899 10905 10912 10919 10924 10933 10938 10944 10951 10953 10958 10959 10963 10966 10970 10975 10977 10980 10983 10985 10986 10989
10650 10658 10671 10683 10697 10708 10719 10725 10736 10753 10765 10782 10802 10811 10816 10823 10831 10842 10851 10859 10866 10869 10877 10886 10892 10901 10909 10918 10926 10931 10937 10940 10944 10947 10953 10958 10961 10965 10966 10970 10975 10978 10979 10981
10638 10646 10653 10668 10679 10685 10697 10711 10720 10733 10747 10764 10780 10791 10802 10811 10818 10825 10833 10839 10848 10853 10859 10869 10877 10883 10891 10900 10911 10916 10923 10928 10931 10936 10942 10947 10951 10953 10955 10959 10964 10968 10971 10971
10626 10633 10642 10657 10665 10677 10688 10698 10704 10714 10730 10747 10764 10772 10778 10788 10799 10808 10814 10821 10829 10833 10838 10845 10855 10865 10877 10888 10894 10901 10910 10916 10919 10925 10931 10937 10941 10944 10946 10949 10953 10955 10958 10962
10611 10618 10628 10643 10648 10660 10679 10690 10692 10701 10714 10732 10743 10751 10760 10769 10778 10784 10790 10798 10805 10811 10817 10826 10835 10846 10859 10868 10878 10885 10893 10900 10906 10909 10915 10920 10927 10932 10935 10940 10942 10944 10945 10948
10603 10611 10620 10630 10638 10657 10668 10669 10674 10685 10699 10712 10720 10728 10741 10750 10757 10764 10772 10778 10786 10790 10794 10807 10816 10828 10841 10850 10858 10865 10873 10880 10887 10893 10898 10903 10909 10914 10920 10925 10930 10932 10934 10937
10586 10596 10604 10615 10625 10643 10652 10654 10665 10672 10672 10690 10703 10708 10718 10727 10734 10740 10744 10747 10761 10771 10779 10787 10797 10811 10819 10830 10839 10845 10852 10858 10865 10871 10877 10883 10891 10898 10903 10907 10913 10917 10921 10926
10573 10580 10587 10597 10610 10621 10625 10633 10638 10648 10659 10673 10685 10691 10696 10705 10711 10717 10722 10728 10737 10748 10754 10765 10779 10790 10801 10807 10812 10819 10828 10837 10844 10851 10857 10863 10869 10875 10881 10888 10896 10900 10905 10908
10556 10564 10570 10578 10591 10600 10607 10616 10621 10625 10638 10652 10663 10670 10676 10682 10685 10692 10701 10711 10716 10723 10731 10743 10749 10760 10775 10784 10789 10797 10806 10813 10821 10828 10835 10841 10846 10852 10859 10864 10872 10877 10880 10885
10541 10545 10549 10558 10570 10578 10585 10592 10601 10609 10617 10633 10641 10647 10653 10653 10660 10669 10677 10683 10692 10700 10709 10717 10727 10736 10744 10755 10766 10777 10785 10792 10798 10804 10810 10817 10824 10829 10834 10840 10846 10852 10856 10859
10529 10530 10534 10539 10547 10555 10563 10571 10577 10587 10596 10605 10614 10620 10627 10634 10639 10646 10655 10663 10672 10680 10685 10691 10700 10710 10720 10727 10734 10745 10755 10765 10771 10778 10785 10792 10797 10805 10811 10817 10822 10827 10833 10835